Weather History for Madison, WI

Change the Weather History Date:

Tuesday, January 8, 2013

  Actual Average Record
Temperature  
Mean Temperature 28 °F 19 °F  
Max Temperature 39 °F 26 °F 54 °F (2003)
Min Temperature 16 °F 11 °F -23 °F (1971)
Degree Days  
Heating Degree Days 37 46  
Month to date heating degree days 356 368  
Since 1 July heating degree days 2951 3247  
Cooling Degree Days 0 0  
Month to date cooling degree days 0 0  
Year to date cooling degree days 0 0  
Moisture  
Dew Point 25 °F    
Average Humidity 83    
Maximum Humidity 96    
Minimum Humidity 70    
Precipitation  
Precipitation 0.00 in 0.04 in 1.04 in (1937)
Month to date precipitation T 0.33  
Year to date precipitation T 0.33  
Snow  
Snow 0.00 in 0.40 in 5.30 in (1998)
Month to date snowfall T 3.2  
Since 1 July snowfall 23.5 20.8  
Snow Depth 8.00 in    
Sea Level Pressure  
Sea Level Pressure 30.04 in    
Wind  
Wind Speed 9 mph (South)    
Max Wind Speed 18 mph    
Max Gust Speed 23 mph    
Visibility 7 miles    
Events      
T = Trace of Precipitation, MM = Missing Value Source: NWS Daily Summary

Daily Weather History Graph

Daily Weather History Graph

Search for Another Location

Airport:

Trip Planner

Search our weather history database for the weather conditions in past years. The results will help you decide how hot, cold, wet, or windy it might be!

Date:

Astronomy

Jan. 08, 2013 Rise Set
Actual Time 7:28 AM CST 4:40 PM CST
Civil Twilight 6:56 AM CST 5:12 PM CST
Nautical Twilight 6:21 AM CST 5:47 PM CST
Astronomical Twilight 5:46 AM CST 6:21 PM CST
Moon 4:01 AM CST (1/8) 1:42 PM CST (1/8)
Length of Visible Light 10h 15m
Length of Day
9h 11m
Waning Crescent, 13% of the Moon is Illuminated
Jan 8
Waning Crescent
Jan 11
New
Jan 18
First Quarter
Jan 26
Full
Feb 3
Last Quarter

Hourly Weather History & Observations

Time (CST) Temp. Windchill Dew Point Humidity Pressure Visibility Wind Dir Wind Speed Gust Speed Precip Events Conditions
12:53 AM 28.9 °F 22.8 °F 23.0 °F 78% 30.08 in 10.0 mi South 5.8 mph - N/A   Clear
1:53 AM 27.0 °F 23.0 °F 21.9 °F 81% 30.08 in 10.0 mi South 3.5 mph - N/A   Clear
2:53 AM 28.0 °F 24.2 °F 23.0 °F 81% 30.08 in 10.0 mi South 3.5 mph - N/A   Clear
3:53 AM 25.0 °F 18.1 °F 21.9 °F 88% 30.08 in 8.0 mi South 5.8 mph - N/A   Clear
4:53 AM 24.1 °F - 21.0 °F 88% 30.08 in 6.0 mi Calm Calm - N/A   Clear
5:53 AM 23.0 °F - 19.0 °F 85% 30.09 in 5.0 mi Calm Calm - N/A   Clear
6:53 AM 18.0 °F - 16.0 °F 92% 30.11 in 4.0 mi Calm Calm - N/A   Scattered Clouds
7:23 AM 17.6 °F 12.3 °F 17.6 °F 100% 30.07 in 1.8 mi South 3.5 mph - N/A   Clear
7:41 AM 23.0 °F 18.4 °F 19.4 °F 86% 30.07 in 2.0 mi South 3.5 mph - N/A   Clear
7:53 AM 23.0 °F 15.8 °F 21.0 °F 92% 30.11 in 2.0 mi South 5.8 mph - N/A   Clear
8:46 AM 26.6 °F 19.1 °F 23.0 °F 86% 30.08 in 3.0 mi South 6.9 mph - N/A   Clear
8:53 AM 26.1 °F 19.4 °F 23.0 °F 88% 30.11 in 3.0 mi South 5.8 mph - N/A   Clear
9:53 AM 28.0 °F 20.8 °F 24.1 °F 85% 30.11 in 3.0 mi South 6.9 mph - N/A   Clear
10:53 AM 32.0 °F 24.2 °F 26.1 °F 79% 30.09 in 6.0 mi South 9.2 mph - N/A   Haze
11:53 AM 34.0 °F 27.2 °F 26.1 °F 73% 30.07 in 7.0 mi South 8.1 mph - N/A   Clear
12:53 PM 36.0 °F 28.5 °F 27.0 °F 70% 30.05 in 9.0 mi South 10.4 mph - N/A   Clear
1:53 PM 36.0 °F 27.5 °F 27.0 °F 70% 30.04 in 9.0 mi South 12.7 mph - N/A   Clear
2:53 PM 37.0 °F 28.9 °F 28.0 °F 70% 30.04 in 9.0 mi South 12.7 mph - N/A   Clear
3:53 PM 37.0 °F 29.3 °F 28.9 °F 73% 30.02 in 10.0 mi South 11.5 mph - N/A   Clear
4:53 PM 37.0 °F 28.9 °F 28.9 °F 73% 30.00 in 9.0 mi South 12.7 mph - N/A   Clear
5:53 PM 36.0 °F 28.0 °F 28.9 °F 76% 29.99 in 10.0 mi South 11.5 mph - N/A   Clear
6:53 PM 37.0 °F 28.9 °F 28.9 °F 73% 29.98 in 10.0 mi South 12.7 mph - N/A   Clear
7:53 PM 37.0 °F 29.3 °F 28.0 °F 70% 29.99 in 10.0 mi South 11.5 mph - N/A   Partly Cloudy
8:53 PM 37.9 °F 29.6 °F 28.9 °F 70% 29.98 in 10.0 mi SSW 13.8 mph 23.0 mph N/A   Partly Cloudy
9:53 PM 39.0 °F 30.6 °F 30.0 °F 70% 29.97 in 10.0 mi SSW 15.0 mph 21.9 mph N/A   Overcast
10:53 PM 37.9 °F 29.2 °F 30.0 °F 73% 29.95 in 10.0 mi South 15.0 mph 21.9 mph N/A   Partly Cloudy
11:53 PM 37.9 °F 30.5 °F 30.0 °F 73% 29.95 in 10.0 mi SSW 11.5 mph 18.4 mph N/A   Clear